Temperature
16 16 16 16 16 16 15 15 15 15 15 14 14 14 14 13 13 13 13 13 13 13 12 12 12 12 12 12 12 12 12 11 11 11 11 12 11 11 11 11 11 11 11
16 16 16 16 16 15 15 15 15 15 14 14 14 14 14 13 13 13 13 13 12 12 12 12 12 12 11 11 11 11 11 11 11 11 11 11 11 11 11 11 11 11 11
16 16 16 15 15 15 15 15 15 14 14 14 14 14 13 13 13 13 12 12 12 12 12 12 11 11 11 11 11 11 11 11 10 11 10 10 10 11 11 11 11 11 11
16 15 15 15 15 15 15 14 14 14 14 14 14 14 13 13 13 12 12 12 12 12 12 11 11 11 11 11 11 11 10 10 10 10 10 10 10 10 10 10 10 10 10
15 15 15 15 15 15 14 14 14 14 14 14 13 13 13 13 12 12 12 12 12 11 11 11 11 11 11 11 10 10 10 10 10 10 10 10 10 10 10 10 10 10 10
15 15 15 14 14 14 14 14 14 13 13 13 13 13 13 13 12 12 12 12 11 11 11 11 11 11 10 10 10 10 10 10 9 9 9 9 9 9 9 9 9 9 9
15 14 14 14 14 14 14 13 13 13 13 13 13 13 13 12 12 12 11 11 11 10 10 10 10 10 10 10 10 10 9 9 9 9 9 9 9 9 9 9 9 9 9
14 14 13 13 13 13 13 13 13 13 12 12 12 12 12 12 12 11 11 11 11 10 10 10 10 10 10 10 10 9 9 9 9 9 9 9 9 9 9 9 9 9 9
13 13 13 13 13 13 12 12 12 12 12 12 12 12 12 11 11 11 11 11 10 10 10 10 10 9 9 9 9 9 9 9 9 9 9 9 8 8 8 8 8 8 9
13 13 13 12 12 12 12 12 12 12 11 11 11 11 11 11 11 11 11 10 10 9 9 9 9 9 9 9 9 9 9 9 9 9 8 8 8 8 8 8 8 8 8
13 12 12 12 12 12 12 11 11 11 11 11 11 10 10 10 10 10 10 10 9 9 9 9 9 9 9 9 8 8 8 8 8 8 8 8 8 8 8 8 8 8 8
12 12 12 12 12 11 11 11 11 11 11 10 10 10 10 10 10 10 9 9 9 9 9 9 8 8 8 8 8 8 8 8 7 7 7 8 8 8 8 8 8 8 7
12 12 11 11 11 11 11 11 10 10 10 10 10 9 9 9 9 9 9 9 8 8 8 8 8 8 8 8 8 7 7 7 7 7 7 7 7 7 7 7 7 7 7
11 11 11 10 10 10 10 10 10 10 10 9 9 9 8 8 8 8 8 8 8 8 7 7 7 7 7 7 7 7 7 7 7 6 6 6 6 7 7 7 7 7 7
11 10 10 10 10 10 10 10 10 10 10 9 9 9 8 8 8 8 8 8 8 7 7 7 7 7 7 7 6 6 6 6 6 6 6 6 6 6 6 6 6 6 6
10 10 10 10 9 9 9 9 9 9 9 9 9 8 8 8 8 8 7 7 7 7 6 6 6 6 6 6 6 6 6 5 6 6 5 5 5 5 5 5 5 5 5
10 10 9 9 9 9 8 8 8 8 8 8 8 8 8 8 7 7 7 7 6 6 6 5 5 5 5 5 5 5 5 5 5 5 5 5 5 5 5 5 5 5 5
9 9 9 9 9 8 8 8 8 8 8 7 7 7 7 7 7 6 6 6 6 5 5 5 5 5 5 4 4 4 4 4 4 4 4 4 4 4 4 4 4 4 4
9 9 9 9 8 8 8 7 7 7 7 7 7 7 7 6 6 6 5 5 5 5 4 4 4 4 4 4 4 3 3 3 3 3 4 4 4 4 4 4 4 4 4
9 9 8 8 8 7 7 7 7 6 6 7 6 6 6 6 5 5 5 4 4 4 4 4 4 4 4 3 3 3 3 3 3 3 3 3 3 3 3 3 3 3 3
8 8 8 8 7 7 7 6 6 6 6 6 6 6 6 5 5 5 4 4 4 4 3 3 3 3 3 3 3 3 3 3 3 3 3 3 3 3 3 3 3 3 3
8 8 7 7 7 6 6 6 6 5 5 5 5 5 5 5 4 4 4 4 4 3 3 3 3 3 3 3 2 3 2 2 2 2 2 2 2 2 3 2 2 2 3
7 7 6 6 6 6 5 5 5 5 5 5 4 4 4 4 4 4 4 4 3 3 3 3 3 3 3 2 2 2 2 2 2 2 2 2 2 2 2 2 2 2 2
6 6 6 6 5 5 5 5 5 4 4 4 4 4 4 4 4 4 4 3 3 3 3 3 3 2 2 2 2 2 2 2 2 2 2 2 2 2 2 1 1 1 2
6 6 5 5 5 5 4 4 4 4 4 4 4 4 3 3 3 3 3 3 3 3 3 3 2 2 2 2 2 2 2 2 2 2 1 1 1 1 1 1 1 1 1
5 5 5 5 4 4 4 4 4 4 4 4 3 3 3 3 3 3 3 3 3 3 2 2 2 2 2 2 2 1 1 1 1 1 1 1 1 1 0 0 0 0 0
Wind_Speed
4 4 3 3 3 3 4 3 3 3 3 3 3 3 3 3 3 2 1 0 1 1 1 1 1 1 1 1 1 1 1 0 1 3 2 1 1 1 0 1 2 3 4
4 4 4 3 3 3 3 3 3 3 3 3 3 2 2 2 2 3 2 1 1 1 1 1 1 1 1 0 1 1 1 1 1 2 2 2 1 1 1 2 2 3 4
4 4 4 4 4 3 3 3 3 2 2 3 3 3 2 2 2 2 1 1 1 0 0 1 1 2 1 1 1 1 1 2 1 1 2 2 2 2 1 2 3 2 3
4 4 4 4 4 3 3 3 3 3 2 2 3 3 2 2 2 2 1 0 1 0 1 1 1 2 1 1 1 1 1 1 2 1 2 2 2 2 1 1 3 3 4
4 4 3 3 3 3 3 3 3 3 2 3 2 2 2 2 2 2 1 0 1 1 1 1 2 3 2 1 1 1 1 1 1 1 2 2 2 2 2 2 3 3 4
4 3 3 3 2 3 3 3 3 3 2 2 2 2 3 2 3 3 2 1 0 1 1 1 2 3 2 2 1 1 0 1 1 1 2 2 2 2 2 2 2 3 3
4 3 3 3 2 2 2 3 3 3 2 3 2 3 3 3 4 3 3 2 1 1 1 1 1 1 2 1 1 1 1 2 2 2 2 3 2 2 1 2 3 3 4
4 4 3 3 3 2 2 2 2 2 2 2 3 4 4 3 3 3 2 1 1 1 1 2 2 2 1 1 1 2 2 2 3 3 2 2 2 2 2 3 4 4 4
4 4 4 4 4 3 3 2 2 2 2 2 3 3 4 3 3 3 2 0 1 1 1 2 3 2 2 3 1 1 2 2 3 3 3 3 4 4 3 1 2 2 3
3 4 4 4 4 4 3 3 1 2 2 2 2 2 3 4 4 3 1 0 0 1 1 2 3 3 2 2 1 1 2 2 3 3 3 4 3 4 4 2 2 2 2
2 2 3 4 4 4 3 2 2 2 3 3 2 2 2 3 4 3 2 1 0 0 0 1 1 2 2 2 2 1 3 3 3 2 2 2 2 2 2 2 2 2 2
2 2 2 3 3 3 3 3 3 3 3 3 2 2 1 2 3 2 2 1 1 1 0 1 1 2 2 2 2 2 4 3 1 1 2 1 2 2 2 2 3 3 4
2 2 2 2 3 3 4 4 3 3 3 3 3 2 1 2 2 3 2 0 1 1 1 1 1 1 1 2 3 3 3 2 1 1 2 2 2 3 2 3 4 4 5
3 3 2 3 3 3 3 4 3 3 3 3 3 2 2 1 2 1 1 1 0 1 1 1 1 1 1 2 3 2 1 1 1 1 2 3 2 2 2 2 3 3 3
3 3 3 3 4 3 3 3 4 3 4 4 3 3 3 2 2 2 2 1 1 1 0 0 1 1 1 1 1 1 1 1 1 2 2 3 2 3 3 2 2 3 3
3 3 3 3 3 3 3 2 2 3 3 4 3 3 2 3 3 3 3 2 1 0 1 0 1 0 1 1 1 1 1 1 1 2 2 3 3 3 3 3 3 3 4
4 3 3 3 3 4 3 3 2 1 2 3 3 4 4 4 4 4 3 2 1 2 1 1 1 1 1 1 1 1 1 2 2 2 2 3 3 3 3 3 3 3 4
3 3 3 3 3 4 4 3 3 3 3 1 2 4 5 4 4 4 4 3 1 1 1 1 2 1 1 1 1 1 1 2 2 2 2 3 3 3 3 3 3 4 4
4 3 3 3 3 3 3 3 3 3 3 3 2 3 4 4 4 4 4 2 2 1 1 1 1 1 1 1 1 1 1 2 2 2 2 3 3 3 3 4 4 5 4
3 5 4 3 3 3 3 3 3 3 3 3 4 4 4 3 3 3 3 2 2 2 2 2 1 1 1 1 1 1 1 2 2 2 3 3 3 3 4 4 4 4 4
3 4 5 4 3 3 3 3 3 3 3 3 3 4 5 4 4 4 4 3 3 3 2 2 2 1 1 1 1 1 2 2 2 2 3 3 3 4 4 4 4 4 4
3 3 3 3 3 3 3 3 3 3 4 3 3 3 6 3 3 3 3 3 3 3 2 2 2 2 1 1 2 2 2 2 3 3 3 3 3 4 4 4 4 4 4
3 3 3 3 3 3 3 3 3 3 3 3 3 3 4 4 3 3 3 3 2 2 2 2 1 1 1 1 1 1 2 3 3 3 3 3 4 4 4 4 5 5 5
3 3 4 4 3 3 4 4 3 3 3 3 3 4 4 4 3 3 3 2 2 1 2 2 2 2 1 1 1 1 2 2 3 2 3 4 4 4 4 5 5 5 5
3 3 4 4 4 4 4 4 3 3 3 4 3 3 3 4 3 3 2 2 2 2 2 2 1 2 2 2 1 2 3 3 3 3 3 3 4 5 5 5 4 5 5
3 3 3 3 3 3 3 3 3 3 3 3 3 3 3 3 3 3 3 2 2 2 2 2 2 2 2 2 2 2 2 3 3 4 3 3 4 4 4 4 5 4 5
Wind_Direction
176 172 154 142 136 137 139 147 158 153 154 145 135 126 137 143 125 120 131 118 133 167 195 137 133 104 75 9 354 350 339 338 261 291 304 329 10 54 39 257 223 204 217
173 167 152 146 144 135 139 151 153 144 140 133 127 132 140 130 126 134 160 186 198 184 188 128 112 99 104 41 357 316 304 292 226 282 305 329 323 266 223 248 256 240 224
159 160 161 162 158 163 154 138 136 123 135 132 130 136 136 133 130 131 160 197 188 192 157 111 85 92 83 62 28 347 313 319 322 284 295 313 318 327 333 301 308 297 286
154 160 167 167 165 170 156 144 144 139 134 127 128 134 138 138 122 112 97 105 106 56 64 87 80 79 75 66 27 7 355 349 340 327 310 307 306 320 359 334 318 308 302
164 166 169 165 162 152 143 141 141 141 138 136 129 124 123 122 98 76 86 115 135 102 84 90 98 88 72 87 72 19 15 349 317 305 299 309 312 338 326 308 313 309 295
163 165 150 146 146 142 147 144 140 134 134 124 123 119 109 103 106 84 51 1 183 169 166 140 127 107 87 89 63 35 206 226 261 268 277 283 279 272 297 311 309 323 301
159 147 140 140 135 139 137 130 139 141 131 130 130 120 114 109 105 89 42 17 307 223 186 155 123 84 93 89 354 336 295 261 247 234 258 264 264 262 260 282 283 282 271
159 150 150 144 141 134 127 136 137 134 143 145 134 128 125 122 110 83 34 1 291 277 212 159 144 119 63 44 347 291 271 272 251 242 237 257 267 273 254 253 262 280 281
157 153 155 156 156 153 154 159 157 148 143 134 128 131 134 135 128 108 63 247 301 321 22 67 89 101 60 42 28 307 296 290 283 278 261 264 276 289 307 319 314 320 302
167 157 156 157 163 169 169 166 157 148 149 138 144 147 141 143 139 128 98 121 283 348 66 83 79 74 50 35 13 300 289 287 293 298 293 286 284 294 301 270 244 270 289
140 146 157 161 166 167 166 164 154 143 143 144 144 141 133 142 146 141 118 74 73 321 81 89 77 58 35 353 324 269 273 289 281 276 273 275 283 281 274 276 260 240 257
140 158 157 148 156 163 154 151 151 147 152 155 149 144 127 127 136 151 146 106 12 351 329 77 80 53 6 334 312 301 312 315 302 304 300 288 292 292 284 275 277 277 264
154 166 162 144 144 153 158 159 160 156 161 167 159 164 167 142 144 131 138 107 348 16 21 56 61 14 345 317 306 313 332 323 309 307 288 279 279 285 298 302 292 283 280
169 178 176 161 158 165 164 165 160 164 169 173 171 174 176 154 138 128 158 188 100 57 23 12 345 313 303 295 308 307 287 298 300 276 284 287 294 292 285 282 289 297 296
184 186 183 172 167 169 170 166 168 172 180 181 180 174 176 185 187 156 140 152 138 171 131 35 3 1 349 338 343 332 327 337 330 316 310 311 309 302 295 291 289 294 285
191 190 182 169 168 168 163 136 118 156 157 158 160 167 175 171 153 132 116 110 91 122 112 174 263 260 248 280 298 311 311 303 296 296 298 299 296 293 298 301 295 283 281
198 190 177 176 172 171 172 172 168 134 133 152 151 146 151 154 148 140 132 128 129 109 132 232 237 239 240 251 278 285 291 297 305 301 296 296 298 298 299 297 297 294 288
195 189 183 183 178 177 180 182 179 174 172 166 158 156 150 144 150 149 135 116 143 167 207 230 241 249 251 264 276 289 301 305 302 298 296 300 299 294 296 299 294 293 294
187 179 174 172 176 184 182 180 184 185 177 166 141 152 154 151 155 159 149 160 183 200 221 240 245 253 263 260 270 284 297 297 307 308 301 302 302 298 293 292 292 299 296
182 179 177 177 180 183 186 187 190 189 178 172 175 171 160 158 171 180 188 194 197 212 217 226 240 254 266 265 262 277 291 291 299 301 300 301 300 298 292 288 290 296 291
172 174 178 179 184 184 185 191 189 184 183 185 186 178 170 181 191 194 193 198 203 209 214 221 223 237 253 264 264 269 275 285 294 298 298 298 300 297 293 290 287 281 286
177 171 176 182 180 181 183 187 186 191 192 189 181 174 174 179 191 195 196 200 206 206 194 201 217 209 214 233 249 262 272 281 287 289 290 293 294 295 296 291 291 289 289
170 172 179 183 176 181 190 192 194 197 195 189 181 173 179 192 195 195 197 195 196 197 173 175 199 204 169 210 221 231 261 275 286 291 295 296 296 294 292 290 291 294 292
170 180 184 183 181 184 191 197 197 197 191 189 188 186 186 193 195 194 191 185 182 181 169 174 188 202 222 259 283 285 283 298 312 307 298 295 295 296 295 294 292 296 294
178 188 188 184 187 188 190 192 191 193 193 191 192 192 187 187 191 191 185 184 185 191 199 199 205 210 226 238 260 286 301 309 318 317 298 289 293 294 295 292 293 295 296
184 192 188 180 181 182 185 189 191 193 195 193 191 192 190 187 191 191 187 190 195 199 206 209 217 218 231 239 250 268 288 304 313 308 293 278 287 290 297 292 294 296 297
Height
1503 1505 1506 1508 1510 1511 1513 1514 1515 1516 1517 1518 1519 1519 1520 1520 1521 1521 1522 1522 1522 1522 1523 1523 1523 1523 1523 1523 1524 1524 1524 1524 1523 1523 1523 1523 1523 1522 1522 1521 1521 1520 1520
1500 1502 1504 1506 1508 1509 1510 1512 1513 1514 1515 1516 1517 1517 1518 1519 1519 1519 1520 1520 1521 1521 1521 1521 1521 1521 1521 1521 1521 1522 1522 1522 1522 1521 1521 1521 1520 1520 1519 1519 1518 1518 1517
1498 1500 1501 1503 1505 1507 1508 1509 1510 1512 1513 1514 1515 1515 1516 1517 1517 1518 1518 1518 1519 1519 1519 1519 1519 1519 1519 1519 1519 1519 1519 1520 1520 1519 1518 1518 1518 1518 1517 1516 1516 1515 1515
1495 1497 1499 1500 1502 1504 1506 1507 1508 1509 1511 1512 1512 1513 1514 1515 1515 1515 1516 1516 1517 1517 1517 1517 1517 1517 1517 1517 1517 1517 1517 1517 1517 1517 1516 1516 1515 1515 1514 1513 1512 1512 1512
1493 1494 1496 1498 1500 1501 1503 1504 1506 1507 1508 1509 1510 1511 1512 1512 1513 1513 1514 1514 1514 1515 1515 1515 1515 1515 1515 1515 1515 1515 1515 1514 1514 1514 1514 1513 1513 1512 1511 1511 1510 1510 1509
1490 1491 1493 1495 1497 1498 1499 1501 1503 1504 1505 1506 1507 1508 1509 1510 1510 1511 1512 1512 1512 1512 1512 1513 1513 1513 1513 1512 1513 1512 1512 1512 1512 1511 1511 1511 1510 1510 1509 1509 1508 1507 1505
1488 1489 1490 1492 1494 1495 1497 1498 1500 1501 1503 1503 1504 1505 1506 1507 1508 1508 1509 1509 1510 1510 1510 1510 1510 1510 1510 1510 1510 1510 1509 1509 1509 1509 1509 1508 1508 1507 1507 1506 1505 1505 1504
1486 1487 1488 1489 1491 1492 1494 1495 1497 1498 1500 1500 1501 1502 1503 1504 1505 1506 1506 1506 1507 1507 1508 1508 1507 1507 1507 1507 1507 1506 1506 1506 1506 1506 1506 1505 1506 1505 1505 1504 1503 1502 1502
1483 1484 1485 1486 1488 1489 1490 1492 1493 1495 1496 1497 1498 1499 1501 1501 1502 1503 1503 1503 1504 1504 1505 1505 1504 1504 1504 1504 1504 1503 1503 1503 1503 1503 1503 1503 1502 1502 1502 1502 1500 1499 1498
1480 1481 1483 1484 1485 1486 1487 1489 1490 1492 1493 1494 1495 1496 1498 1498 1499 1500 1500 1500 1501 1501 1501 1502 1502 1502 1502 1501 1501 1500 1500 1500 1500 1499 1499 1499 1499 1499 1499 1498 1498 1496 1495
1478 1479 1480 1481 1482 1483 1485 1486 1487 1489 1490 1491 1492 1493 1494 1495 1496 1496 1497 1497 1497 1498 1498 1498 1498 1498 1498 1498 1498 1497 1497 1497 1496 1496 1496 1496 1495 1495 1495 1495 1494 1494 1493
1475 1476 1477 1477 1479 1480 1481 1483 1484 1486 1487 1488 1489 1490 1490 1491 1492 1493 1493 1494 1494 1494 1494 1495 1495 1495 1495 1495 1495 1494 1494 1494 1493 1493 1492 1492 1492 1491 1491 1491 1491 1490 1490
1472 1473 1474 1474 1476 1477 1478 1479 1481 1482 1484 1485 1485 1486 1487 1488 1489 1489 1490 1490 1490 1491 1491 1492 1492 1492 1492 1492 1492 1492 1492 1491 1491 1490 1489 1489 1488 1488 1488 1487 1487 1486 1485
1469 1470 1471 1472 1473 1474 1475 1476 1477 1478 1480 1481 1482 1483 1484 1484 1485 1485 1486 1486 1487 1487 1487 1488 1488 1489 1489 1489 1489 1488 1488 1488 1488 1487 1487 1486 1486 1485 1484 1483 1483 1482 1481
1466 1467 1468 1469 1470 1471 1472 1473 1474 1475 1476 1477 1478 1479 1480 1480 1481 1482 1482 1483 1483 1483 1484 1484 1485 1485 1485 1485 1485 1485 1485 1485 1484 1484 1483 1483 1482 1481 1480 1480 1479 1478 1477
1463 1464 1465 1466 1467 1468 1469 1470 1471 1472 1474 1475 1476 1477 1477 1478 1479 1479 1479 1480 1480 1481 1481 1481 1481 1482 1482 1481 1481 1481 1481 1481 1481 1480 1480 1479 1478 1478 1477 1476 1475 1474 1472
1459 1461 1462 1463 1464 1465 1466 1466 1467 1469 1470 1471 1472 1473 1474 1475 1475 1476 1476 1476 1477 1477 1477 1478 1478 1478 1478 1478 1478 1478 1478 1478 1478 1477 1476 1475 1475 1474 1473 1472 1471 1470 1468
1456 1457 1459 1460 1461 1462 1462 1463 1464 1465 1465 1466 1468 1469 1470 1471 1472 1472 1473 1473 1473 1473 1474 1474 1475 1475 1475 1475 1475 1474 1474 1474 1474 1473 1473 1472 1471 1470 1469 1468 1467 1466 1464
1452 1453 1455 1456 1457 1458 1459 1460 1461 1461 1462 1462 1463 1465 1466 1467 1468 1469 1469 1469 1469 1470 1470 1471 1471 1471 1471 1471 1471 1471 1471 1470 1470 1469 1469 1468 1467 1466 1465 1464 1463 1462 1460
1448 1449 1450 1452 1453 1454 1455 1456 1457 1457 1458 1458 1459 1460 1461 1462 1463 1464 1465 1465 1466 1466 1466 1467 1467 1468 1468 1468 1467 1467 1467 1466 1466 1466 1465 1464 1463 1462 1461 1459 1458 1457 1456
1444 1445 1446 1448 1449 1450 1451 1452 1453 1454 1454 1455 1456 1456 1457 1458 1459 1460 1461 1461 1462 1462 1463 1463 1463 1464 1464 1464 1463 1463 1463 1462 1462 1461 1461 1460 1459 1457 1456 1455 1454 1453 1451
1439 1441 1442 1443 1445 1446 1447 1448 1449 1450 1451 1451 1452 1453 1454 1455 1456 1457 1457 1458 1458 1459 1459 1459 1459 1460 1460 1460 1459 1459 1458 1458 1458 1457 1456 1455 1454 1453 1452 1451 1449 1448 1446
1435 1437 1438 1440 1441 1442 1443 1445 1445 1446 1447 1448 1448 1449 1450 1451 1452 1453 1454 1454 1455 1455 1455 1455 1455 1455 1455 1455 1455 1455 1455 1454 1454 1453 1452 1451 1450 1449 1448 1446 1445 1443 1442
1431 1433 1434 1436 1437 1438 1439 1440 1442 1442 1443 1444 1444 1445 1446 1447 1448 1449 1450 1450 1451 1451 1451 1452 1452 1451 1451 1451 1451 1451 1450 1450 1449 1448 1448 1446 1445 1444 1443 1441 1440 1439 1437
1428 1429 1430 1432 1433 1434 1435 1436 1437 1438 1439 1440 1441 1441 1442 1443 1444 1445 1446 1446 1447 1447 1447 1448 1448 1447 1447 1447 1447 1446 1446 1445 1445 1444 1443 1442 1440 1439 1438 1436 1435 1434 1433
1424 1425 1427 1428 1429 1430 1431 1432 1433 1434 1435 1436 1437 1437 1438 1439 1440 1441 1441 1442 1442 1443 1443 1443 1443 1443 1443 1443 1442 1442 1441 1440 1440 1439 1438 1436 1435 1434 1433 1431 1430 1429 1428